Location: Namasale
(1.5000°N, 32.6167°E)
Time: 19:02:39
(UTC+00:00)

deb Explorer IX - All Passes

Search period start: 19 April 2021 00:00
Search period end: 29 April 2021 00:00
Orbit: 540 x 1099 km, 38.8° (Epoch: 19 April)

Date Brightness Start Highest point End Pass type
(mag) Time Alt. Az. Time Alt. Az. Time Alt. Az.
19 Apr - 00:58:55 10° SSW 01:03:03 46° SE 01:06:57 10° ENE visible
19 Apr - 02:47:25 10° WNW 02:49:37 14° NW 02:51:51 10° N visible
19 Apr - 11:50:01 10° NNW 11:55:57 34° NE 12:02:21 10° ESE daylight
19 Apr - 13:36:28 10° WNW 13:43:14 52° SW 13:50:19 10° SSE daylight
19 Apr - 15:30:13 10° SW 15:31:01 10° SW 15:31:49 10° SSW daylight
20 Apr - 00:35:10 10° SW 00:39:26 47° SE 00:43:22 10° ENE visible
20 Apr - 02:23:47 10° WNW 02:26:00 14° NW 02:28:11 10° N visible
20 Apr - 11:26:18 10° NNW 11:32:06 33° NE 11:38:25 10° ESE daylight
20 Apr - 13:12:41 10° WNW 13:19:21 51° SW 13:26:25 10° SSE daylight
20 Apr - 15:06:20 10° SW 15:07:10 10° SW 15:08:00 10° SSW daylight
21 Apr - 00:11:24 10° SW 00:15:48 48° SE 00:19:48 10° ENE night (unlit)
21 Apr - 02:00:07 10° WNW 02:02:22 14° NW 02:04:33 10° N visible
21 Apr - 11:02:37 10° NNW 11:08:14 33° NE 11:14:26 10° ESE daylight
21 Apr - 12:48:56 10° WNW 12:55:28 51° SW 13:02:31 10° SSE daylight
21 Apr - 14:42:35 10° SW 14:43:19 10° SW 14:44:03 10° SSW daylight
21 Apr - 23:47:37 10° SW 23:52:10 49° SE 23:56:14 10° ENE night (unlit)
22 Apr - 01:36:24 10° WNW 01:38:43 14° NW 01:40:57 10° N visible
22 Apr - 10:38:56 10° NNW 10:44:24 32° NE 10:50:29 10° ESE daylight
22 Apr - 12:25:11 10° WNW 12:31:35 50° SW 12:38:35 10° SSE daylight
22 Apr - 14:19:05 10° SW 14:19:28 10° SW 14:19:51 10° SSW daylight
22 Apr - 23:23:49 10° SW 23:28:32 51° SE 23:32:41 10° ENE night (unlit)
23 Apr - 01:12:39 10° WNW 01:15:04 15° NW 01:17:23 10° N visible
23 Apr - 10:15:18 10° NNW 10:20:35 32° NE 10:26:31 10° ESE daylight
23 Apr - 12:01:29 10° WNW 12:07:43 50° SW 12:14:38 10° SSE daylight
23 Apr - 22:59:58 10° SW 23:04:52 52° SE 23:09:08 10° ENE night (unlit)
24 Apr - 00:48:52 10° WNW 00:51:25 15° NW 00:53:50 10° N night (unlit)
24 Apr - 09:51:41 10° NNW 09:56:47 31° NE 10:02:33 10° ESE daylight
24 Apr - 11:37:48 10° WNW 11:43:52 49° SW 11:50:42 10° SSE daylight
24 Apr - 22:36:07 10° SW 22:41:12 53° SE 22:45:36 10° ENE night (unlit)
25 Apr - 00:25:04 10° WNW 00:27:46 15° NW 00:30:18 10° N night (unlit)
25 Apr - 09:28:04 10° NNW 09:32:59 30° NE 09:38:34 10° ESE daylight
25 Apr - 11:14:07 10° WNW 11:20:01 48° SW 11:26:44 10° SSE daylight
25 Apr - 22:12:15 10° SW 22:17:32 55° SE 22:22:02 10° ENE night (unlit)
26 Apr - 00:01:14 10° W 00:04:06 16° NW 00:06:47 10° N night (unlit)
26 Apr - 09:04:28 10° NNW 09:09:13 29° NE 09:14:36 10° E daylight
26 Apr - 10:50:28 10° WNW 10:56:11 47° SW 11:02:46 10° SSE daylight
26 Apr - 21:48:21 10° SW 21:53:50 56° SE 21:58:29 10° ENE night (unlit)
26 Apr - 23:37:22 10° W 23:40:26 16° NW 23:43:16 10° N night (unlit)
27 Apr - 08:40:53 10° NNW 08:45:27 28° NE 08:50:39 10° E daylight
27 Apr - 10:26:50 10° WNW 10:32:23 46° SW 10:38:48 10° SSE daylight
27 Apr - 21:24:25 10° SW 21:30:07 57° SE 21:34:56 10° ENE night (unlit)
27 Apr - 23:13:28 10° W 23:16:45 17° NW 23:19:46 10° N night (unlit)
28 Apr - 08:17:20 10° NNW 08:21:42 28° NE 08:26:42 10° E daylight
28 Apr - 10:03:14 10° WNW 10:08:35 45° SW 10:14:50 10° SSE daylight
28 Apr - 21:00:30 10° SW 21:06:24 58° SE 21:11:21 10° ENE night (unlit)
28 Apr - 22:49:33 10° W 22:53:03 18° NW 22:56:15 10° N night (unlit)
